Temp
84 86 86 86 83 84 84 85 83 82 82 81 81 81 81 81 82 79 77 77 77 75
83 82 82 82 82 85 83 86 84 82 81 82 82 81 80 82 80 79 75 76 75 75
85 84 83 82 81 81 81 82 81 81 82 82 81 81 80 80 81 78 79 79 75 75
84 85 84 82 82 82 82 81 81 81 80 81 80 81 79 77 78 76 75 75 75 75
84 83 83 82 82 82 81 82 81 81 80 80 81 80 79 77 78 76 72 75 73 72
83 82 81 81 82 82 81 81 81 81 80 79 80 79 78 78 76 74 75 75 73 71
83 82 82 82 82 82 82 81 80 80 80 80 80 80 80 78 76 75 76 75 72 71
84 83 82 81 81 82 82 81 81 80 81 81 82 84 77 78 77 75 74 75 74 72
84 83 82 82 82 82 81 81 81 80 80 80 83 66 67 71 75 75 73 73 73 71
83 82 82 82 82 80 80 81 80 79 79 79 80 64 67 69 74 74 73 72 71 72
83 82 82 82 80 80 80 79 78 79 79 79 80 63 64 66 73 73 73 71 72 69
83 82 82 81 80 80 80 79 78 79 75 78 76 61 61 65 75 74 72 72 72 72
84 83 82 81 80 81 80 79 81 79 80 72 78 69 59 64 76 73 73 73 70 66
84 83 82 81 68 70 78 78 77 77 77 77 71 66 58 57 73 75 73 72 67 74
MSLP
1015.29 1015.04 1015.01 1014.87 1015.41 1015.30 1015.02 1014.82 1015.11 1015.22 1015.07 1014.92 1014.80 1014.62 1014.49 1014.29 1013.98 1013.92 1013.86 1013.89 1013.63 1013.60
1015.07 1015.26 1015.21 1015.44 1015.60 1015.19 1015.22 1014.81 1014.92 1015.10 1015.04 1014.81 1014.64 1014.58 1014.57 1013.99 1013.94 1014.03 1014.06 1013.93 1013.77 1013.51
1014.43 1014.82 1015.13 1015.38 1015.44 1015.44 1015.33 1015.26 1015.20 1015.08 1014.76 1014.50 1014.31 1014.26 1014.16 1013.85 1013.60 1013.71 1013.62 1013.51 1013.48 1013.16
1014.25 1014.42 1014.75 1015.04 1015.05 1014.98 1014.97 1015.01 1014.97 1014.84 1014.61 1014.31 1014.12 1013.82 1013.73 1014.05 1013.63 1013.61 1013.58 1013.56 1013.22 1012.88
1014.02 1014.29 1014.46 1014.65 1014.72 1014.70 1014.65 1014.63 1014.59 1014.44 1014.20 1013.94 1013.68 1013.60 1013.46 1013.48 1013.35 1013.46 1013.58 1013.09 1013.07 1012.93
1013.66 1013.96 1014.20 1014.40 1014.42 1014.44 1014.37 1014.27 1014.11 1013.95 1013.69 1013.47 1013.21 1013.17 1013.29 1012.99 1013.23 1013.28 1013.04 1012.84 1012.92 1012.92
1013.12 1013.58 1013.79 1013.88 1014.05 1014.06 1013.99 1013.83 1013.71 1013.50 1013.29 1013.08 1012.84 1012.58 1012.49 1012.77 1012.84 1012.89 1012.61 1012.55 1012.64 1012.83
1012.64 1013.09 1013.37 1013.53 1013.59 1013.55 1013.51 1013.40 1013.27 1013.02 1012.66 1012.43 1012.13 1011.63 1012.22 1012.33 1012.25 1012.36 1012.32 1012.12 1011.99 1012.12
1012.16 1012.51 1012.78 1012.86 1012.93 1012.92 1012.93 1012.86 1012.66 1012.46 1012.30 1011.99 1011.67 1012.00 1012.08 1012.18 1012.08 1011.78 1011.75 1011.55 1011.43 1011.53
1011.74 1012.01 1012.21 1012.29 1012.39 1012.56 1012.55 1012.37 1012.17 1012.17 1012.02 1011.81 1011.53 1011.87 1011.82 1011.85 1011.80 1011.40 1011.22 1011.13 1010.96 1010.67
1011.20 1011.45 1011.59 1011.70 1011.89 1012.05 1012.00 1011.87 1011.90 1011.84 1011.62 1011.33 1011.20 1011.33 1011.48 1011.61 1011.52 1011.04 1010.86 1010.82 1010.54 1010.38
1010.49 1010.72 1010.91 1011.06 1011.17 1011.39 1011.32 1011.45 1011.38 1011.13 1011.01 1010.69 1010.67 1010.77 1010.89 1011.20 1010.87 1010.11 1010.23 1010.17 1009.90 1009.63
1009.74 1009.97 1010.14 1010.44 1011.02 1011.46 1011.54 1011.07 1010.67 1010.51 1010.38 1010.43 1010.20 1009.89 1010.20 1010.64 1010.21 1009.65 1009.72 1009.43 1009.29 1008.88
1009.11 1009.43 1009.71 1010.11 1011.05 1012.66 1011.03 1010.76 1010.51 1010.41 1010.39 1010.53 1010.90 1010.29 1010.45 1010.40 1010.03 1009.43 1009.21 1008.89 1008.87 1008.45
Wind_Speed
3 5 4 3 5 6 6 6 5 5 6 8 8 8 8 8 8 9 9 13 10 8
4 4 6 5 5 7 3 6 4 6 8 8 8 7 8 8 6 7 8 10 10 10
3 4 4 5 6 6 7 7 8 8 9 9 9 8 7 8 7 9 8 10 11 11
4 5 4 6 6 6 7 7 9 9 10 10 10 10 7 9 11 10 11 11 11 13
5 5 5 6 7 7 8 8 9 10 11 11 10 11 9 11 10 10 10 12 12 14
6 6 6 6 6 7 8 9 10 10 11 11 12 9 11 10 10 8 10 10 10 12
6 7 7 7 6 7 8 9 10 10 11 10 12 12 12 9 9 9 10 9 7 10
6 7 8 7 8 8 9 9 10 10 11 11 11 9 3 8 10 10 11 9 8 7
6 7 8 8 8 8 9 9 9 9 11 11 10 4 6 6 10 11 10 9 9 9
8 8 8 8 7 8 9 10 9 9 10 10 11 10 11 12 10 13 10 11 10 11
9 9 8 8 9 8 8 8 7 9 10 9 9 11 12 12 12 12 12 12 12 11
10 10 9 9 8 8 7 8 8 10 9 9 10 10 13 10 12 11 11 12 12 11
10 9 9 9 7 6 8 9 9 9 8 7 10 7 10 9 9 9 9 11 10 10
9 8 8 7 4 12 8 8 9 9 9 10 20 3 4 3 6 8 8 9 8 10
Wind_Direction
281 287 288 254 344 302 333 319 360 293 306 303 305 303 297 284 303 314 310 300 300 297
244 268 317 319 297 278 322 289 267 318 298 293 287 299 307 289 301 309 317 315 313 313
238 231 243 266 269 289 291 288 297 296 295 298 286 279 278 300 329 316 329 317 326 310
253 229 222 253 266 274 281 284 282 291 300 298 285 286 290 289 283 328 325 318 320 320
225 232 252 258 276 288 287 288 284 287 290 290 297 299 298 286 304 305 308 317 328 334
222 233 241 261 272 284 290 289 289 294 293 296 290 302 294 295 293 297 303 310 324 334
213 228 245 258 267 271 281 295 294 290 288 287 277 271 261 285 275 287 297 302 318 322
218 226 246 256 268 278 287 291 293 286 280 281 282 273 5 256 284 287 288 294 295 299
235 236 250 261 262 275 288 287 284 294 291 289 284 120 202 247 273 280 281 291 296 296
227 232 242 258 269 284 283 283 298 299 290 288 285 195 213 221 255 277 278 287 294 300
225 233 238 244 255 266 264 283 303 288 284 287 292 190 224 228 256 274 282 282 294 286
224 230 236 245 251 255 266 278 276 266 263 261 266 198 221 223 271 280 284 283 290 297
226 231 240 249 276 279 270 259 258 271 296 291 285 286 201 219 278 290 287 296 298 288
225 227 248 252 84 262 257 274 279 291 294 298 324 133 283 179 277 290 297 296 298 304